DW3201 Weather Reports


Display with metric or nautical units.
time (UTC)temp
F
wind
direction
speed
MPH
gust
MPH
rain 1hr
in
rain 24hr
in
rain mn
in
humidity
%
barometer
mb
20260504194555 78 260 9.0 19.0 0.00 0.00 0.00 26 996.8
20260504193052 78 243 10.0 19.0 0.00 0.00 0.00 25 996.7
20260504191606 78 193 11.0 20.0 0.00 0.00 0.00 26 996.9
20260504190052 77 210 10.0 18.0 0.00 0.00 0.00 26 997.0
20260504184551 77 245 9.0 24.0 0.00 0.00 0.00 27 996.9
20260504183053 76 245 13.0 20.0 0.00 0.00 0.00 27 997.1
20260504181559 76 260 12.0 23.0 0.00 0.00 0.00 26 997.4
20260504180052 75 162 9.0 22.0 0.00 0.00 0.00 27 997.3
20260504174558 75 249 8.0 22.0 0.00 0.00 0.00 27 997.6
20260504173058 75 266 10.0 17.0 0.00 0.00 0.00 27 997.7
20260504171555 74 245 12.0 22.0 0.00 0.00 0.00 28 998.2
20260504120124 55 231 0.0 4.0 0.00 0.00 0.00 63 1001.4
20260504081557 49 0 0.0 1.0 0.00 0.00 0.00 76 1002.5
20260504044555 57 275 0.0 3.0 0.00 0.00 0.00 63 1003.9
20260504043111 57 278 2.0 5.0 0.00 0.00 0.00 62 1003.9
20260504041552 57 260 2.0 6.0 0.00 0.00 0.00 62 1004.0
20260504040055 55 248 2.0 4.0 0.00 0.00 0.00 68 1003.9
20260504034555 52 0 0.0 2.0 0.00 0.00 0.00 77 1003.9
20260504033116 53 0 0.0 0.0 0.00 0.00 0.00 75 1004.0
20260504031557 53 0 0.0 0.0 0.00 0.00 0.00 76 1004.0
20260504030114 54 0 0.0 0.0 0.00 0.00 0.00 75 1004.0
20260504024553 55 0 0.0 1.0 0.00 0.00 0.00 73 1004.0
20260504023055 56 0 0.0 1.0 0.00 0.00 0.00 68 1003.8
20260504021558 57 0 0.0 1.0 0.00 0.00 0.00 62 1003.7
20260504020105 58 255 0.0 1.0 0.00 0.00 0.00 64 1003.8
20260504014554 60 0 0.0 1.0 0.00 0.00 0.00 58 1003.7
20260504013055 61 268 0.0 1.0 0.00 0.00 0.00 58 1003.8
20260504011553 63 239 0.0 2.0 0.00 0.00 0.00 52 1003.6
20260504010101 64 242 0.0 2.0 0.00 0.00 0.00 46 1003.6
20260504004556 65 248 1.0 4.0 0.00 0.00 0.00 45 1003.5
20260504003104 66 256 3.0 5.0 0.00 0.00 0.00 42 1003.5
20260504001602 67 248 4.0 7.0 0.00 0.00 0.00 41 1003.3
20260504000104 67 255 5.0 11.0 0.00 0.00 0.00 40 1003.4
20260503234551 68 233 5.0 10.0 0.00 0.00 0.00 40 1003.4
20260503233055 68 235 4.0 18.0 0.00 0.00 0.00 40 1003.5
20260503231551 68 288 5.0 14.0 0.00 0.00 0.00 40 1003.6
20260503230110 68 242 8.0 13.0 0.00 0.00 0.00 40 1003.6
20260503224554 68 250 7.0 17.0 0.00 0.00 0.00 39 1003.8
20260503223109 67 235 7.0 17.0 0.00 0.00 0.00 40 1003.9
20260503221555 67 256 10.0 16.0 0.00 0.00 0.00 40 1004.1
20260503220054 67 243 8.0 19.0 0.00 0.00 0.00 41 1004.1
20260503214601 67 226 10.0 17.0 0.00 0.00 0.00 41 1004.0
20260503213056 66 243 7.0 23.0 0.00 0.00 0.00 42 1004.5
20260503211602 66 288 8.0 20.0 0.00 0.00 0.00 42 1004.5
20260503210052 65 270 8.0 16.0 0.00 0.00 0.00 43 1004.7
20260503204555 65 191 12.0 19.0 0.00 0.00 0.00 41 1005.0
20260503203057 65 261 11.0 17.0 0.00 0.00 0.00 41 1005.1
20260503201555 63 235 7.0 19.0 0.00 0.00 0.00 48 1005.3
20260503200057 63 292 13.0 21.0 0.00 0.00 0.00 49 1005.7